DW1980 Weather Reports


Display with metric or nautical units.
time (UTC)temp
F
wind
direction
speed
MPH
gust
MPH
rain 1hr
in
rain 24hr
in
rain mn
in
humidity
%
barometer
mb
20210421071914 45 202 0.0 0.0 0.00 0.00 0.00 90 1011.2
20210421071344 45 202 0.0 0.0 0.00 0.00 0.00 90 1011.3
20210421070640 46 202 0.0 0.0 0.00 0.00 0.00 89 1011.4
20210421065619 46 202 0.0 0.0 0.00 0.00 0.00 88 1011.4
20210421064358 46 202 0.0 0.0 0.00 0.00 0.00 89 1011.4
20210421063844 46 202 0.0 0.0 0.00 0.00 0.00 88 1011.5
20210421063407 47 202 0.0 0.0 0.00 0.00 0.00 88 1011.6
20210421063018 47 202 0.0 0.0 0.00 0.00 0.00 88 1011.7
20210421062802 47 202 0.0 0.0 0.00 0.00 0.00 88 1011.8
20210421062026 47 202 0.0 0.0 0.00 0.00 0.00 87 1011.8
20210421061407 47 202 0.0 0.0 0.00 0.00 0.00 87 1011.8
20210421060854 47 202 0.0 0.0 0.00 0.00 0.00 87 1011.9
20210421060355 48 202 0.0 0.0 0.00 0.00 0.00 87 1012.0
20210421060041 48 202 0.0 0.0 0.00 0.00 0.00 86 1012.1
20210421054844 48 202 0.0 0.0 0.00 0.00 0.00 85 1012.2
20210421054355 48 202 0.0 0.0 0.00 0.00 0.00 85 1012.2
20210421053843 49 202 0.0 0.0 0.00 0.00 0.00 85 1012.2
20210421053353 49 202 0.0 0.0 0.00 0.00 0.00 84 1012.3
20210421053054 49 202 0.0 0.0 0.00 0.00 0.00 84 1012.4
20210421052905 49 202 0.0 0.0 0.00 0.00 0.00 84 1012.5
20210421051958 49 202 0.0 0.0 0.00 0.00 0.00 83 1012.5
20210421051349 50 202 0.0 0.0 0.00 0.00 0.00 83 1012.6
20210421050847 50 202 0.0 0.0 0.00 0.00 0.00 83 1012.7
20210421050356 50 202 0.0 0.0 0.00 0.00 0.00 82 1012.8
20210421045934 50 202 0.0 0.0 0.00 0.00 0.00 82 1012.8
20210421045651 51 202 0.0 0.0 0.00 0.00 0.00 81 1012.9
20210421044919 51 202 0.0 0.0 0.00 0.00 0.00 81 1012.8
20210421044353 51 202 0.0 0.0 0.00 0.00 0.00 81 1012.9
20210421043856 51 202 0.0 0.0 0.00 0.00 0.00 80 1012.9
20210421043357 52 202 0.0 0.0 0.00 0.00 0.00 79 1012.9
20210421042915 52 202 0.0 0.0 0.00 0.00 0.00 79 1013.0
20210421042731 52 202 0.0 0.0 0.00 0.00 0.00 79 1013.1
20210421041922 53 202 0.0 0.0 0.00 0.00 0.00 78 1013.1
20210421041339 53 202 0.0 0.0 0.00 0.00 0.00 78 1013.2
20210421040850 53 202 0.0 0.0 0.00 0.00 0.00 77 1013.2
20210421040341 53 202 0.0 0.0 0.00 0.00 0.00 75 1013.2
20210421035924 53 202 0.0 0.0 0.00 0.00 0.00 74 1013.3
20210421035650 53 202 0.0 0.0 0.00 0.00 0.00 74 1013.2
20210421034903 53 202 0.0 0.0 0.00 0.00 0.00 74 1013.2
20210421034340 54 202 0.0 3.0 0.00 0.00 0.00 74 1013.2
20210421033849 54 202 0.0 3.0 0.00 0.00 0.00 74 1013.1
20210421033408 54 202 0.0 0.0 0.00 0.00 0.00 74 1013.2
20210421032851 54 202 0.0 0.0 0.00 0.00 0.00 74 1013.1
20210421032632 55 202 0.0 0.0 0.00 0.00 0.00 73 1013.1
20210421031850 55 202 0.0 0.0 0.00 0.00 0.00 72 1013.2
20210421031351 56 202 0.0 0.0 0.00 0.00 0.00 72 1013.1
20210421030847 56 202 0.0 0.0 0.00 0.00 0.00 71 1013.1
20210421030354 56 202 0.0 0.0 0.00 0.00 0.00 69 1013.0
20210421030027 57 202 0.0 0.0 0.00 0.00 0.00 69 1013.1
20210421025802 57 202 0.0 3.0 0.00 0.00 0.00 69 1013.1
20210421024938 57 202 0.0 4.0 0.00 0.00 0.00 69 1013.1
20210421024352 57 203 1.0 7.0 0.00 0.00 0.00 70 1013.1
20210421023844 57 202 0.0 7.0 0.00 0.00 0.00 69 1013.1
20210421023356 57 203 2.0 6.0 0.00 0.00 0.00 70 1013.1
20210421022850 57 202 1.0 6.0 0.00 0.00 0.00 71 1013.1
20210421022633 57 204 0.0 3.0 0.00 0.00 0.00 72 1013.1
20210421021948 57 204 1.0 4.0 0.00 0.00 0.00 72 1013.1
20210421021353 57 204 2.0 4.0 0.00 0.00 0.00 73 1013.1
20210421020842 57 204 0.0 4.0 0.00 0.00 0.00 72 1013.0
20210421020354 57 204 2.0 4.0 0.00 0.00 0.00 73 1013.1
20210421015917 57 203 0.0 3.0 0.00 0.00 0.00 73 1013.1
20210421015738 57 203 0.0 2.0 0.00 0.00 0.00 73 1013.1
20210421014946 57 203 1.0 3.0 0.00 0.00 0.00 73 1012.9
20210421013856 57 203 2.0 4.0 0.00 0.00 0.00 72 1012.9
20210421013346 57 203 0.0 3.0 0.00 0.00 0.00 72 1012.9
20210421012852 58 203 0.0 1.0 0.00 0.00 0.00 71 1012.8
20210421012524 58 203 0.0 2.0 0.00 0.00 0.00 70 1012.9
20210421011922 58 203 0.0 2.0 0.00 0.00 0.00 69 1012.8
20210421011345 59 203 0.0 2.0 0.00 0.00 0.00 69 1012.8
20210421010852 59 203 0.0 2.0 0.00 0.00 0.00 69 1012.7
20210421010346 59 203 0.0 2.0 0.00 0.00 0.00 67 1012.7
20210421005846 60 203 0.0 4.0 0.00 0.00 0.00 66 1012.6
20210421005023 60 203 0.0 4.0 0.00 0.00 0.00 66 1012.6
20210421004338 61 203 0.0 4.0 0.00 0.00 0.00 65 1012.6
20210421003846 61 203 2.0 4.0 0.00 0.00 0.00 64 1012.5
20210421003358 61 203 2.0 6.0 0.00 0.00 0.00 64 1012.4
20210421002847 61 203 4.0 6.0 0.00 0.00 0.00 63 1012.3
20210421002658 61 203 3.0 6.0 0.00 0.00 0.00 63 1012.3
20210421001943 62 194 2.0 5.0 0.00 0.00 0.00 62 1012.2
20210421001336 62 195 2.0 4.0 0.00 0.00 0.00 62 1012.3
20210421000846 62 195 1.0 7.0 0.00 0.00 0.00 62 1012.3
20210421000400 62 195 1.0 8.0 0.00 0.00 0.00 61 1012.2
20210420235853 62 184 2.0 8.0 0.00 0.00 0.00 61 1012.1
20210420235745 62 211 3.0 8.0 0.00 0.00 0.00 60 1012.0
20210420234926 63 180 4.0 8.0 0.00 0.00 0.00 60 1012.0
20210420234353 63 180 1.0 6.0 0.00 0.00 0.00 60 1012.0
20210420233843 63 177 1.0 6.0 0.00 0.00 0.00 59 1011.9
20210420233355 64 190 1.0 5.0 0.00 0.00 0.00 59 1011.8
20210420232915 64 189 2.0 5.0 0.00 0.00 0.00 58 1011.8
20210420232813 65 188 0.0 5.0 0.00 0.00 0.00 57 1011.7
20210420231937 65 188 3.0 7.0 0.00 0.00 0.00 56 1011.7
20210420231355 65 187 3.0 7.0 0.00 0.00 0.00 56 1011.7
20210420230849 65 171 3.0 7.0 0.00 0.00 0.00 56 1011.6
20210420230356 66 169 3.0 7.0 0.00 0.00 0.00 55 1011.6
20210420225844 66 167 1.0 6.0 0.00 0.00 0.00 55 1011.5
20210420225555 66 167 2.0 8.0 0.00 0.00 0.00 55 1011.6
20210420224955 67 157 3.0 8.0 0.00 0.00 0.00 54 1011.6
20210420224351 67 182 1.0 4.0 0.00 0.00 0.00 54 1011.6
20210420223842 68 182 1.0 4.0 0.00 0.00 0.00 54 1011.6
20210420223353 68 182 3.0 4.0 0.00 0.00 0.00 53 1011.6
20210420222843 68 181 1.0 5.0 0.00 0.00 0.00 52 1011.7
20210420222512 69 182 2.0 7.0 0.00 0.00 0.00 50 1011.7
20210420221851 69 188 2.0 7.0 0.00 0.00 0.00 50 1011.7
20210420221350 69 162 3.0 9.0 0.00 0.00 0.00 49 1011.7
20210420220840 70 185 2.0 11.0 0.00 0.00 0.00 50 1011.6
20210420220352 70 171 3.0 11.0 0.00 0.00 0.00 49 1011.6
20210420215849 70 150 3.0 8.0 0.00 0.00 0.00 47 1011.7
20210420215622 70 175 3.0 7.0 0.00 0.00 0.00 47 1011.7
20210420215025 70 148 2.0 8.0 0.00 0.00 0.00 46 1011.6
20210420214351 71 146 5.0 8.0 0.00 0.00 0.00 45 1011.6
20210420213844 72 177 5.0 8.0 0.00 0.00 0.00 45 1011.6
20210420213352 72 199 5.0 8.0 0.00 0.00 0.00 42 1011.6
20210420212839 73 232 5.0 8.0 0.00 0.00 0.00 36 1011.6
20210420212646 73 197 4.0 15.0 0.00 0.00 0.00 40 1011.6
20210420211947 73 191 6.0 11.0 0.00 0.00 0.00 36 1011.5
20210420211400 73 172 5.0 9.0 0.00 0.00 0.00 36 1011.5
20210420210844 73 284 6.0 15.0 0.00 0.00 0.00 34 1011.5
20210420210356 73 237 7.0 15.0 0.00 0.00 0.00 35 1011.4
20210420205844 73 242 6.0 13.0 0.00 0.00 0.00 35 1011.5
20210420205408 73 242 4.0 11.0 0.00 0.00 0.00 35 1011.4
20210420204905 73 201 4.0 11.0 0.00 0.00 0.00 36 1011.3
20210420204351 73 201 6.0 11.0 0.00 0.00 0.00 35 1011.4
20210420203843 73 220 3.0 11.0 0.00 0.00 0.00 36 1011.4
20210420203354 73 217 6.0 14.0 0.00 0.00 0.00 35 1011.5
20210420202842 73 203 6.0 14.0 0.00 0.00 0.00 35 1011.6
20210420202438 74 210 7.0 14.0 0.00 0.00 0.00 34 1011.5
20210420201846 74 192 7.0 15.0 0.00 0.00 0.00 34 1011.6
20210420201352 74 181 6.0 15.0 0.00 0.00 0.00 35 1011.6
20210420200840 74 217 4.0 11.0 0.00 0.00 0.00 35 1011.6
20210420200358 74 226 6.0 11.0 0.00 0.00 0.00 35 1011.6
20210420195840 74 226 3.0 14.0 0.00 0.00 0.00 37 1011.7
20210420195515 74 229 7.0 12.0 0.00 0.00 0.00 35 1011.9
20210420194857 74 185 3.0 10.0 0.00 0.00 0.00 36 1011.8
20210420194354 73 273 4.0 12.0 0.00 0.00 0.00 38 1012.0
20210420193842 73 234 6.0 15.0 0.00 0.00 0.00 34 1012.1
20210420193354 74 212 7.0 15.0 0.00 0.00 0.00 33 1012.2
20210420192839 74 245 7.0 19.0 0.00 0.00 0.00 35 1012.2
20210420192457 74 254 9.0 22.0 0.00 0.00 0.00 34 1012.3
20210420191926 74 245 8.0 22.0 0.00 0.00 0.00 35 1012.3
20210420191349 74 300 8.0 16.0 0.00 0.00 0.00 34 1012.2
20210420190840 74 232 7.0 13.0 0.00 0.00 0.00 33 1012.4
20210420190358 74 298 6.0 17.0 0.00 0.00 0.00 35 1012.5
20210420185859 74 217 10.0 17.0 0.00 0.03 0.00 33 1012.5
20210420185419 74 239 7.0 13.0 0.00 0.03 0.00 36 1012.4
20210420184912 74 211 9.0 16.0 0.00 0.03 0.00 35 1012.4
20210420184345 74 192 10.0 16.0 0.00 0.03 0.00 35 1012.5
20210420183854 74 232 6.0 15.0 0.00 0.03 0.00 37 1012.6
20210420183345 74 198 6.0 19.0 0.00 0.03 0.00 36 1012.6
20210420182851 74 201 8.0 19.0 0.00 0.03 0.00 36 1012.7
20210420182622 74 179 8.0 15.0 0.00 0.03 0.00 36 1012.8
20210420182020 74 222 9.0 15.0 0.00 0.03 0.00 36 1012.8
20210420181339 74 211 7.0 11.0 0.00 0.03 0.00 37 1012.8
20210420180849 74 188 3.0 12.0 0.00 0.03 0.00 37 1012.8
20210420180340 73 252 7.0 14.0 0.00 0.03 0.00 35 1012.9
20210420175955 73 229 7.0 15.0 0.00 0.03 0.00 38 1013.0
20210420175429 73 224 2.0 15.0 0.00 0.03 0.00 39 1013.0
20210420174845 73 200 7.0 15.0 0.00 0.03 0.00 36 1013.0
20210420174336 73 230 5.0 14.0 0.00 0.03 0.00 39 1013.0
20210420173847 73 208 6.0 14.0 0.00 0.03 0.00 37 1013.1
20210420173356 73 213 7.0 15.0 0.00 0.03 0.00 38 1013.1
20210420172848 73 297 7.0 13.0 0.00 0.03 0.00 37 1013.0
20210420172548 73 301 6.0 13.0 0.00 0.03 0.00 36 1013.0
20210420171920 73 266 6.0 14.0 0.00 0.03 0.00 36 1013.1
20210420171352 73 234 7.0 14.0 0.00 0.03 0.00 36 1013.2
20210420170855 73 259 4.0 11.0 0.00 0.03 0.00 39 1013.1
20210420170442 73 234 6.0 15.0 0.00 0.03 0.00 39 1013.1
20210420170151 73 257 5.0 15.0 0.00 0.03 0.00 45 1013.1
20210420165923 72 250 6.0 14.0 0.00 0.03 0.00 44 1013.2
20210420165155 72 213 5.0 14.0 0.00 0.03 0.00 43 1013.2
20210420164342 72 237 6.0 13.0 0.00 0.03 0.00 40 1013.3
20210420163847 72 196 4.0 16.0 0.00 0.03 0.00 42 1013.4
20210420163357 71 215 5.0 16.0 0.00 0.03 0.00 44 1013.4
20210420162843 71 229 7.0 14.0 0.00 0.03 0.00 42 1013.6
20210420162531 71 280 5.0 14.0 0.00 0.03 0.00 43 1013.4
20210420161845 70 303 4.0 11.0 0.00 0.03 0.00 46 1013.4
20210420161353 70 174 5.0 11.0 0.00 0.03 0.00 46 1013.5
20210420160839 70 254 4.0 14.0 0.00 0.03 0.00 48 1013.7
20210420160349 69 205 5.0 14.0 0.00 0.03 0.00 46 1013.7
20210420155854 69 228 7.0 14.0 0.00 0.03 0.00 48 1013.7
20210420155524 69 182 5.0 11.0 0.00 0.03 0.00 47 1013.7
20210420154844 69 200 6.0 11.0 0.00 0.03 0.00 47 1013.7
20210420154346 68 279 4.0 10.0 0.00 0.03 0.00 50 1013.7
20210420153837 68 208 5.0 8.0 0.00 0.03 0.00 48 1013.7
20210420153350 68 213 5.0 8.0 0.00 0.03 0.00 49 1013.8
20210420152855 67 265 3.0 8.0 0.00 0.03 0.00 51 1013.8
20210420152653 67 259 4.0 10.0 0.00 0.03 0.00 52 1013.8
20210420152020 67 215 4.0 12.0 0.00 0.03 0.00 49 1013.9
20210420151343 66 245 5.0 12.0 0.00 0.03 0.00 54 1013.8
20210420150852 66 205 5.0 10.0 0.00 0.03 0.00 50 1013.9
20210420150346 66 225 5.0 10.0 0.00 0.03 0.00 51 1014.0
20210420145851 65 296 6.0 10.0 0.00 0.03 0.00 53 1013.9
20210420144904 65 267 5.0 12.0 0.00 0.03 0.00 52 1013.9
20210420144340 65 259 4.0 11.0 0.00 0.03 0.00 55 1013.9
20210420143833 65 209 6.0 11.0 0.00 0.03 0.00 53 1013.9
20210420143349 65 167 5.0 10.0 0.00 0.03 0.00 54 1014.1
20210420142834 65 202 6.0 10.0 0.00 0.03 0.00 55 1014.0
20210420142553 64 286 6.0 11.0 0.00 0.03 0.00 56 1014.0
20210420141912 64 225 5.0 9.0 0.00 0.03 0.00 56 1014.1
20210420141338 64 217 5.0 8.0 0.00 0.03 0.00 57 1014.0
20210420140407 63 252 2.0 7.0 0.00 0.03 0.00 61 1014.1
20210420140032 63 223 3.0 7.0 0.00 0.03 0.00 59 1014.1
20210420135748 62 231 2.0 8.0 0.00 0.03 0.00 63 1014.1
20210420134935 62 285 1.0 8.0 0.00 0.03 0.00 63 1014.1
20210420134335 61 221 4.0 8.0 0.00 0.03 0.00 65 1014.1
20210420133849 61 217 3.0 8.0 0.00 0.03 0.00 65 1014.2
20210420133340 60 205 4.0 10.0 0.00 0.03 0.00 64 1014.2
20210420132846 60 277 4.0 11.0 0.00 0.03 0.00 67 1014.2
20210420132733 59 251 6.0 11.0 0.00 0.03 0.00 68 1014.2
20210420131910 59 292 5.0 10.0 0.00 0.03 0.00 69 1014.2
20210420131336 59 237 4.0 8.0 0.00 0.03 0.00 71 1014.2
20210420130852 58 251 3.0 8.0 0.00 0.03 0.00 73 1014.2
20210420130357 57 215 2.0 6.0 0.00 0.03 0.00 74 1014.2
20210420125958 57 220 3.0 6.0 0.00 0.03 0.00 78 1014.1
20210420125727 56 217 2.0 5.0 0.00 0.03 0.00 79 1014.1
20210420124937 55 223 3.0 5.0 0.00 0.03 0.00 81 1014.1
20210420124356 54 221 3.0 4.0 0.00 0.03 0.00 82 1014.2
20210420123843 53 220 0.0 4.0 0.00 0.03 0.00 85 1014.1
20210420123354 52 221 1.0 4.0 0.00 0.03 0.00 88 1014.0
20210420122809 50 222 3.0 5.0 0.00 0.03 0.00 95 1014.1
20210420122235 49 214 2.0 6.0 0.00 0.03 0.00 96 1014.2
20210420121357 48 214 2.0 6.0 0.00 0.03 0.00 97 1014.1
20210420120841 46 198 1.0 3.0 0.00 0.03 0.00 96 1014.0
20210420120352 45 198 0.0 0.0 0.00 0.03 0.00 96 1014.0
20210420115854 43 198 0.0 0.0 0.00 0.03 0.00 95 1014.0
20210420115725 42 198 0.0 0.0 0.00 0.03 0.00 95 1014.0
20210420115008 42 198 0.0 0.0 0.00 0.03 0.00 95 1013.9
20210420114348 41 198 0.0 0.0 0.00 0.03 0.00 95 1014.0
20210420113841 41 198 0.0 0.0 0.00 0.03 0.00 95 1013.9
20210420113350 40 198 0.0 0.0 0.00 0.03 0.00 95 1013.9
20210420112840 39 198 0.0 0.0 0.00 0.03 0.00 95 1014.0
20210420112525 39 198 0.0 0.0 0.00 0.03 0.00 94 1014.0
20210420111909 39 198 0.0 0.0 0.00 0.03 0.00 95 1014.0
20210420111348 38 198 0.0 0.0 0.00 0.03 0.00 94 1013.9
20210420110840 38 198 0.0 0.0 0.00 0.03 0.00 94 1013.8
20210420110349 38 198 0.0 0.0 0.00 0.03 0.00 94 1013.8
20210420105836 38 198 0.0 0.0 0.00 0.03 0.00 94 1013.7
20210420105545 38 198 0.0 0.0 0.00 0.03 0.00 94 1013.7
20210420104909 37 198 0.0 0.0 0.00 0.03 0.00 94 1013.6
20210420104348 37 198 0.0 0.0 0.00 0.03 0.00 94 1013.5
20210420103840 37 198 0.0 0.0 0.00 0.03 0.00 94 1013.4
20210420103351 37 198 0.0 0.0 0.00 0.03 0.00 94 1013.4
20210420102843 37 198 0.0 0.0 0.00 0.03 0.00 94 1013.3
20210420102408 37 198 0.0 0.0 0.00 0.03 0.00 94 1013.3
20210420101850 37 198 0.0 0.0 0.00 0.03 0.00 94 1013.2
20210420101354 37 198 0.0 0.0 0.00 0.03 0.00 94 1013.3
20210420100842 37 198 0.0 0.0 0.00 0.03 0.00 94 1013.3
20210420100353 37 198 0.0 0.0 0.00 0.03 0.00 94 1013.2
20210420095841 37 198 0.0 0.0 0.00 0.03 0.00 94 1013.1
20210420095524 37 198 0.0 0.0 0.00 0.03 0.00 94 1013.1
20210420094842 37 198 0.0 0.0 0.00 0.03 0.00 94 1013.1
20210420094351 37 198 0.0 0.0 0.00 0.03 0.00 94 1013.0
20210420093840 37 198 0.0 0.0 0.00 0.03 0.00 94 1013.0
20210420093354 37 198 0.0 0.0 0.00 0.03 0.00 94 1012.9
20210420092839 37 198 0.0 0.0 0.00 0.03 0.00 94 1013.0
20210420092355 37 198 0.0 0.0 0.00 0.03 0.00 94 1012.9
20210420091853 38 198 0.0 0.0 0.00 0.03 0.00 94 1012.9
20210420091349 37 198 0.0 0.0 0.00 0.03 0.00 94 1012.9
20210420090839 38 198 0.0 0.0 0.00 0.03 0.00 94 1013.0
20210420090351 38 198 0.0 0.0 0.00 0.03 0.00 94 1013.0
20210420085838 38 198 0.0 0.0 0.00 0.03 0.00 94 1013.0
20210420085700 38 198 0.0 0.0 0.00 0.03 0.00 94 1013.0
20210420084908 38 198 0.0 0.0 0.00 0.03 0.00 93 1013.0
20210420084348 38 198 0.0 0.0 0.00 0.03 0.00 93 1013.1
20210420083837 38 198 0.0 0.0 0.00 0.03 0.00 94 1013.1
20210420083347 38 198 0.0 0.0 0.00 0.03 0.00 93 1013.2
20210420082838 38 198 0.0 0.0 0.00 0.03 0.00 93 1013.2
20210420082356 38 198 0.0 0.0 0.00 0.03 0.00 93 1013.2
20210420081839 38 198 0.0 0.0 0.00 0.03 0.00 93 1013.3
20210420081349 38 198 0.0 0.0 0.00 0.03 0.00 93 1013.2
20210420080837 38 198 0.0 0.0 0.00 0.03 0.00 93 1013.2
20210420080350 38 198 0.0 0.0 0.00 0.03 0.00 93 1013.2
20210420075853 38 198 0.0 0.0 0.00 0.03 0.00 93 1013.2
20210420075618 38 198 0.0 0.0 0.00 0.03 0.00 93 1013.2
20210420074342 39 198 0.0 0.0 0.00 0.03 0.00 93 1013.2
20210420073852 39 198 0.0 0.0 0.00 0.03 0.00 93 1013.1
20210420073340 39 198 0.0 0.0 0.00 0.03 0.00 93 1013.1
20210420072852 39 198 0.0 0.0 0.00 0.03 0.00 93 1013.1
20210420072529 39 198 0.0 0.0 0.00 0.03 0.00 93 1013.1